This demonstration page uses our WeatherBlox Daily Observations layout. Learn more.

Left ArrowRight Arrow

Hourly Observations for October 12, 2021

Temp ( °F °C ) Dew Point ( °F °C ) Humidity (%) Winds ( mph kmh ) Pressure ( in mb ) Visibility ( mi km ) Precip ( " mm )
12:53 am 00:53 Mostly Clear 70 21.1 39 3.9 32 32 SSE 9 15 29.64 1004 10 16 N/A
1:53 am 01:53 Clear 70 21.1 41 5 35 35 SSE 16 26 29.63 1004 10 16 N/A
2:53 am 02:53 Clear 68 20 41 5 38 38 SE 15 24 29.62 1003 10 16 N/A
3:53 am 03:53 Clear 67 19.4 42 5.6 41 41 SE 16 26 29.60 1002 10 16 N/A
4:53 am 04:53 Clear 67 19.4 42 5.6 41 41 SE 16 26 29.60 1002 10 16 N/A
5:53 am 05:53 Clear 66 18.9 45 7.2 47 47 SE 14 22 29.60 1002 10 16 N/A
6:53 am 06:53 Clear 64 17.8 50 10 60 60 SE 13 20 29.62 1003 10 16 N/A
7:53 am 07:53 Clear 62 16.7 52 11.1 70 70 SE 10 17 29.64 1004 10 16 N/A
8:53 am 08:53 Sunny 64 17.8 55 12.8 73 73 SE 12 19 29.65 1004 10 16 N/A
9:53 am 09:53 Sunny 72 22.2 50 10 46 46 SSE 17 28 29.66 1004 10 16 N/A
10:53 am 10:53 Sunny 79 26.1 46 7.8 31 31 S 12 19 29.64 1004 10 16 N/A
11:53 am 11:53 Sunny 87 30.6 44 6.7 22 22 S 21 33 29.61 1003 10 16 N/A
12:53 pm 12:53 Sunny 88 31.1 43 6.1 21 21 SSW 17 28 29.59 1002 10 16 N/A
1:53 pm 13:53 Sunny 91 32.8 43 6.1 19 19 SSW 14 22 29.57 1001 10 16 N/A
2:53 pm 14:53 Sunny 92 33.3 42 5.6 18 18 S 18 30 29.53 1000 9 14 N/A
3:53 pm 15:53 Partly Cloudy 93 33.9 43 6.1 18 18 SSW 20 31 29.49 999 10 16 N/A
4:53 pm 16:53 Mostly Sunny 93 33.9 39 3.9 15 15 SSW 20 31 29.48 998 10 16 N/A
5:53 pm 17:53 Sunny 94 34.4 38 3.3 14 14 SW 18 30 29.47 998 10 16 N/A
6:53 pm 18:53 Sunny 91 32.8 38 3.3 15 15 S 17 28 29.48 998 10 16 N/A
7:53 pm 19:53 Clear 86 30 38 3.3 18 18 SSW 12 19 29.51 999 10 16 N/A
8:53 pm 20:53 Clear 83 28.3 37 2.8 19 19 S 15 24 29.51 999 10 16 N/A
9:53 pm 21:53 Clear 85 29.4 47 8.3 27 27 S 22 35 29.52 1000 10 16 N/A
10:53 pm 22:53 Clear 81 27.2 48 8.9 32 32 SSE 15 24 29.53 1000 10 16 N/A
11:53 pm 23:53 Clear 78 25.6 52 11.1 40 40 SSE 14 22 29.54 1000 10 16 N/A

Powered by AerisWeather